ハートレー第3彗星

110P/Hartley 3 (2021)

English version
Home page
Updated on October 22, 2022

---------------------------------------------------------------------

・ プロフィール

・ 写真集

・ 軌道要素

Epoch 2022 Aug. 9.0 TT = JDT 2459800.5
T 2021 Oct. 18.32810 TT                                 Rudenko
q   2.4556035            (2000.0)            P               Q
n   0.14408599     Peri.  167.45139     -0.09113668     -0.97686769
a   3.6034752      Node   287.52979     +0.89523528     +0.00471645
e   0.3185458      Incl.   11.70503     +0.43617417     -0.21379261
P   6.84
From 2581 observations 2013 Aug. 11-2022 May 22, mean residual 0".6.

・ 星図

・ 光度変化

        m1 =  11.0 + 5 logΔ +  13.0 log r  [    ,-140]  (              〜2021年 5月31日)
        m1 = -25.2 + 5 logΔ + 100   log r  [-140,   0]  (2021年 5月31日〜2021年10月18日)
        m1 =   0.2 + 5 logΔ +  35   log r  [   0,    ]  (2021年10月18日〜              )

---------------------------------------------------------------------

軌道要素はM.P.E.C. 2022-L66に掲載されたものです。
星図はステラナビゲータ Ver.10 (アストロアーツ) で作成したものです。
光度グラフはComet for Windowsで作成したものです。

---------------------------------------------------------------------

Copyright(C) Seiichi Yoshida (comet@aerith.net). All rights reserved.